Hourly Weather Bolshie Staryshi

Today, 5 August, Thursday

Time Temperature Precipitation Wind Pressure Humidity
00:00 +15°C° 0 mm 2 mps 744 mmHg 78%
01:00 +16°C° 0 mm 2 mps 744 mmHg 78%
02:00 +16°C° 0 mm 2 mps 744 mmHg 77%
03:00 +15°C° 1.8 mm 2 mps 744 mmHg 84%
04:00 +15°C° 1.8 mm 2 mps 744 mmHg 90%
05:00 +15°C° 1.8 mm 2 mps 743 mmHg 97%
06:00 +14°C° 0.5 mm 3 mps 743 mmHg 96%
07:00 +14°C° 0.5 mm 4 mps 743 mmHg 95%
08:00 +14°C° 0 mm 4 mps 743 mmHg 94%
09:00 +17°C° 0.1 mm 4 mps 743 mmHg 89%
10:00 +17°C° 0.1 mm 5 mps 743 mmHg 83%
11:00 +19°C° 0.1 mm 5 mps 743 mmHg 78%
12:00 +20°C° 0.1 mm 4 mps 742 mmHg 73%
13:00 +21°C° 0.1 mm 4 mps 742 mmHg 68%
14:00 +24°C° 0 mm 3 mps 742 mmHg 61%
15:00 +22°C° 0.3 mm 3 mps 742 mmHg 63%
16:00 +23°C° 0.3 mm 2 mps 742 mmHg 65%
17:00 +23°C° 0.3 mm 2 mps 741 mmHg 67%
18:00 +21°C° 0.1 mm 2 mps 741 mmHg 72%
19:00 +20°C° 0.1 mm 1 mps 741 mmHg 77%
20:00 +19°C° 0.1 mm 1 mps 741 mmHg 82%
21:00 +18°C° 0 mm 1 mps 741 mmHg 84%
22:00 +18°C° 0 mm 1 mps 741 mmHg 86%
23:00 +16°C° 0 mm 2 mps 741 mmHg 88%

Tomorrow, 6 August, Friday

Time Temperature Precipitation Wind Pressure Humidity
00:00 +16°C° 0 mm 2 mps 740 mmHg 88%
01:00 +16°C° 0 mm 2 mps 740 mmHg 89%
02:00 +16°C° 0 mm 2 mps 740 mmHg 89%
03:00 +16°C° 0 mm 2 mps 740 mmHg 89%
04:00 +16°C° 0 mm 3 mps 739 mmHg 90%
05:00 +16°C° 0 mm 3 mps 739 mmHg 90%
06:00 +16°C° 1.8 mm 3 mps 739 mmHg 93%
07:00 +17°C° 1.8 mm 3 mps 738 mmHg 95%
08:00 +17°C° 1.8 mm 4 mps 738 mmHg 98%
09:00 +18°C° 0.7 mm 4 mps 738 mmHg 97%
10:00 +17°C° 0.7 mm 5 mps 738 mmHg 96%
11:00 +19°C° 0.7 mm 5 mps 738 mmHg 94%
12:00 +20°C° 0.7 mm 5 mps 738 mmHg 92%
13:00 +20°C° 0.7 mm 5 mps 737 mmHg 89%
14:00 +21°C° 0.7 mm 5 mps 737 mmHg 87%
15:00 +22°C° 0.7 mm 4 mps 737 mmHg 86%
16:00 +23°C° 0.7 mm 4 mps 737 mmHg 85%
17:00 +23°C° 0.7 mm 4 mps 736 mmHg 84%
18:00 +22°C° 0.9 mm 3 mps 736 mmHg 87%
19:00 +20°C° 0.9 mm 3 mps 736 mmHg 90%
20:00 +19°C° 0.9 mm 3 mps 736 mmHg 93%
21:00 +19°C° 0 mm 3 mps 736 mmHg 94%
22:00 +19°C° 0 mm 3 mps 736 mmHg 94%
23:00 +19°C° 0 mm 3 mps 736 mmHg 95%

Day after tomorrow, 7 August, Saturday

Time Temperature Precipitation Wind Pressure Humidity
00:00 +18°C° 0.2 mm 3 mps 736 mmHg 96%
01:00 +18°C° 0.2 mm 3 mps 736 mmHg 97%
02:00 +18°C° 0.2 mm 3 mps 736 mmHg 98%
03:00 +18°C° 0.2 mm 3 mps 736 mmHg 97%
04:00 +18°C° 0.2 mm 4 mps 736 mmHg 97%
05:00 +17°C° 0.2 mm 4 mps 736 mmHg 96%
06:00 +17°C° 0 mm 4 mps 737 mmHg 93%
07:00 +17°C° 0 mm 4 mps 737 mmHg 91%
08:00 +17°C° 0 mm 3 mps 737 mmHg 88%
09:00 +18°C° 0 mm 4 mps 738 mmHg 80%
10:00 +19°C° 0 mm 5 mps 738 mmHg 72%
11:00 +20°C° 0 mm 6 mps 738 mmHg 64%
12:00 +20°C° 0 mm 6 mps 738 mmHg 63%
13:00 +20°C° 0 mm 6 mps 738 mmHg 63%
14:00 +20°C° 0 mm 6 mps 739 mmHg 63%
15:00 +19°C° 0 mm 5 mps 739 mmHg 66%
16:00 +19°C° 0 mm 5 mps 739 mmHg 68%
17:00 +19°C° 0 mm 5 mps 739 mmHg 71%
18:00 +19°C° 0 mm 4 mps 740 mmHg 72%
19:00 +18°C° 0 mm 4 mps 740 mmHg 73%
20:00 +18°C° 0 mm 4 mps 740 mmHg 74%
21:00 +17°C° 0 mm 4 mps 740 mmHg 77%
22:00 +17°C° 0 mm 4 mps 741 mmHg 80%
23:00 +15°C° 0 mm 4 mps 741 mmHg 83%

8 August, Sunday

Time Temperature Precipitation Wind Pressure Humidity
00:00 +15°C° 0 mm 4 mps 741 mmHg 87%
01:00 +14°C° 0 mm 3 mps 741 mmHg 91%
02:00 +14°C° 0 mm 3 mps 742 mmHg 95%
03:00 +14°C° 0 mm 3 mps 742 mmHg 96%
04:00 +13°C° 0 mm 3 mps 742 mmHg 96%
05:00 +14°C° 0 mm 2 mps 742 mmHg 97%
06:00 +16°C° 0 mm 3 mps 743 mmHg 90%
07:00 +17°C° 0 mm 3 mps 743 mmHg 84%
08:00 +19°C° 0 mm 4 mps 744 mmHg 78%
09:00 +20°C° 0 mm 3 mps 744 mmHg 74%
10:00 +21°C° 0 mm 3 mps 744 mmHg 69%
11:00 +22°C° 0 mm 3 mps 744 mmHg 65%
12:00 +24°C° 0 mm 3 mps 744 mmHg 60%
13:00 +25°C° 0 mm 3 mps 745 mmHg 54%
14:00 +26°C° 0 mm 3 mps 745 mmHg 49%
15:00 +26°C° 0 mm 2 mps 745 mmHg 50%
16:00 +26°C° 0 mm 2 mps 745 mmHg 51%
17:00 +26°C° 0 mm 1 mps 745 mmHg 51%
18:00 +24°C° 0 mm 2 mps 745 mmHg 56%
19:00 +21°C° 0 mm 2 mps 745 mmHg 61%
20:00 +19°C° 0 mm 2 mps 745 mmHg 66%
21:00 +19°C° 0 mm 2 mps 745 mmHg 68%
22:00 +19°C° 0 mm 3 mps 746 mmHg 69%
23:00 +18°C° 0 mm 3 mps 746 mmHg 71%

9 August, Monday

Time Temperature Precipitation Wind Pressure Humidity
00:00 +18°C° 0 mm 3 mps 746 mmHg 72%
01:00 +17°C° 0 mm 3 mps 746 mmHg 73%
02:00 +17°C° 0 mm 3 mps 746 mmHg 75%
03:00 +17°C° 0 mm 3 mps 746 mmHg 75%
04:00 +17°C° 0 mm 3 mps 746 mmHg 76%
05:00 +17°C° 0 mm 3 mps 746 mmHg 76%
06:00 +18°C° 0 mm 3 mps 746 mmHg 71%
07:00 +20°C° 0 mm 3 mps 746 mmHg 66%
08:00 +22°C° 0 mm 4 mps 746 mmHg 61%
09:00 +25°C° 0 mm 4 mps 746 mmHg 58%
10:00 +26°C° 0 mm 4 mps 746 mmHg 54%
11:00 +28°C° 0 mm 3 mps 746 mmHg 51%
12:00 +29°C° 0 mm 3 mps 746 mmHg 50%
13:00 +29°C° 0 mm 3 mps 746 mmHg 49%
14:00 +30°C° 0 mm 3 mps 746 mmHg 48%
15:00 +30°C° 0 mm 2 mps 746 mmHg 50%
16:00 +30°C° 0 mm 2 mps 746 mmHg 52%
17:00 +30°C° 0 mm 2 mps 745 mmHg 54%
18:00 +28°C° 0.3 mm 2 mps 745 mmHg 62%
19:00 +25°C° 0.3 mm 3 mps 746 mmHg 70%
20:00 +22°C° 0.3 mm 3 mps 746 mmHg 78%
21:00 +21°C° 1.7 mm 3 mps 746 mmHg 84%
22:00 +19°C° 1.7 mm 3 mps 746 mmHg 90%
23:00 +18°C° 1.7 mm 3 mps 746 mmHg 96%

10 August, Tuesday

Time Temperature Precipitation Wind Pressure Humidity
00:00 +18°C° 0.6 mm 3 mps 746 mmHg 96%
01:00 +17°C° 0.6 mm 3 mps 746 mmHg 96%
02:00 +17°C° 0.6 mm 2 mps 746 mmHg 97%
03:00 +17°C° 0 mm 2 mps 746 mmHg 97%
04:00 +17°C° 0 mm 2 mps 746 mmHg 97%
05:00 +16°C° 0 mm 2 mps 746 mmHg 98%
06:00 +18°C° 0 mm 2 mps 746 mmHg 95%
07:00 +19°C° 0 mm 3 mps 746 mmHg 91%
08:00 +20°C° 0 mm 3 mps 746 mmHg 88%
09:00 +21°C° 0 mm 3 mps 746 mmHg 84%
10:00 +22°C° 0 mm 3 mps 746 mmHg 79%
11:00 +24°C° 0 mm 2 mps 746 mmHg 75%
12:00 +24°C° 0.1 mm 3 mps 746 mmHg 75%
13:00 +24°C° 0.1 mm 3 mps 746 mmHg 75%
14:00 +24°C° 0.1 mm 3 mps 746 mmHg 75%
15:00 +24°C° 0.1 mm 3 mps 745 mmHg 75%
16:00 +24°C° 0.1 mm 3 mps 745 mmHg 76%
17:00 +24°C° 0.1 mm 3 mps 745 mmHg 76%
18:00 +22°C° 0.1 mm 3 mps 745 mmHg 81%
19:00 +20°C° 0.1 mm 3 mps 745 mmHg 85%
20:00 +19°C° 0.1 mm 3 mps 745 mmHg 90%
21:00 +18°C° 0.1 mm 2 mps 745 mmHg 90%
22:00 +18°C° 0.1 mm 2 mps 745 mmHg 91%
23:00 +17°C° 0.1 mm 2 mps 745 mmHg 91%
Show more

We Need Your Consent

Meteoprog and our Service Providers may store and access personal data such as cookies, device identifiers or other similar technologies on your device and process such data to personalise content and ads, as well as provide social media features and to analyse the traffic.

  • Store and/or access information on your device

    Cookies, device identifiers or other information can be stored or accessed on your device for the purposes indicated above.

  • Personalised ads and content, ad and content measurement, audience insights, and products development

    Ads and content can be personalised based on a profile. More data can be added to better personalise ads and content. Ad and content performance can be measured. Insights about the audience who saw the ads and content can be derived. Such data can be used to develop or improve user’s experience, systems and software.

By clicking ‘I Agree’ you will allow the use of indicated cookies, device identifiers, web beacons or other similar technologies. Your settings can be changed in the browser on your device.

For certain purposes, legitimate interests may be relied on, rather than consent. You can read more about this in our Privacy and Cookie Policy.